{"data":{"norad_id":59582,"intl_designator":"2024-076U","name":"STARLINK-31701","alt_names":[],"object_type":"PAYLOAD","status":"ACTIVE","operator":null,"country":"US","launch_date":"2024-04-23","launch_site_code":"AFETR","launch_vehicle":null,"mission":null,"orbit_class":"UNKNOWN","rcs_meters":null,"size_class":null,"mass_kg":null,"dimensions":null,"purposes":["comms"],"wikipedia_slug":null,"has_3d_model":false,"image_url":null,"decayed_at":null,"tle_current":{"epoch":"2026-09-21T12:44:06.546912Z","epoch_age_seconds":79225,"freshness":"FRESH","line1":"1 59582U 24076U   26264.53063133 -.00007461  00000+0 -26161-3 0  9990","line2":"2 59582  43.0028 343.0237 0001316 282.0515  78.0189 15.27612160136367","mean_motion":15.2761216,"eccentricity":0.0001316,"inclination_deg":43.0028,"raan_deg":343.0237,"arg_perigee_deg":282.0515,"mean_anomaly_deg":78.0189,"bstar":-0.00026161,"rev_number":13636,"period_min":94.264764166318,"perigee_km":482.04987970203,"apogee_km":483.85571853716,"semimajor_km":6861.0897991196,"source":"CELESTRAK","updated_at":"2026-09-22T09:00:49.005368Z"}}}